千帆星座-140(QIANFAN-140)

导读

QIANFAN-140(NORAD编号:69085)是中国千帆星座(Qianfan Constellation)中的一颗低轨互联网卫星,该星座旨在构建自主可控的全球低轨卫星通信网络,为全球提供宽带互联网接入服务。 千帆星座在2024年进入规模化部署阶段,多次发射后逐步扩大在轨卫星规模,QIANFAN-140作为组网卫星之一,运行于近地轨道,主要用于补充星座通信覆盖能力,支持天地一体化网络通信,为地面盲区提供数据传输服务,推动中国商业低轨卫星互联网的建设进程。

基本信息
目录编号:
69085
目录名称:
QIANFAN-139
国际标识:
2026-104N
轨道中心:
EARTH
卫星名称:
千帆星座-140
卫星全名:
千帆星座-140(QIANFAN-140)
卫星状态:
在轨 (已飞行122 天)
发射日期:
2026-05-12 UTC
国别 :
中国 (CN)
星等 :
--
该卫星已列入 空间交会检测服务 Space Conjunction Data Service (SCDS) ,当前飞行风险评估等级: 无高风险
轨道信息
数据来源 国际轨道数据 AOE轨道数据
星历时间 2026-09-11T13:42:11+0800
7小时前
查看轨道信息
2026-09-11T00:00:00+0800
21小时前
查看轨道信息
半长轴 7446.612km 7446.614km
偏心率 0.0002497 0.0002521
轨道倾角 88.991° 88.992°
近地点辐角 105.285° 106.372°
升交点赤经 332.692° 332.750°
平近点角 254.858° 358.461°
近地点 1066.615km 1066.599km
远地点 1070.335km 1070.355km
周期 106.585分钟 106.585分钟
每日圈数 13.510291 13.510287
详细信息
卫星平台:
140
覆盖范围:
全球
运营商:
上海垣信卫星科技有限公司
运营商所在国:
中国
使用方式:
暂无
卫星简介
千帆星座,也被称为“G60星链”计划,是中国版“星链”的重要组成部分,旨在打造一个由1.4万多颗低轨宽频多媒体卫星构成的庞大星座。千帆星座计划由上海垣信卫星科技有限公司负责实施,于2023年启动建设。该项目是我国第二个低轨卫星大星座,旨在通过构建庞大的卫星网络,为全球用户提供高质量的通信和宽带互联网服务。
2D轨道图
3D轨道图
轨道高度分析图
轨道倾角分析图
轨道综合分析图
查看轨道综合分析图
与全量物体交会距离演化趋势
与全量物体交会风险概率演化趋势